Starlink 33778

operational
NORAD ID: 63877 Int'l Des: 2025-094 Owner: SPXS Country: US Constellation: starlink
LEOCIRCULAR

Starlink 33778について

説明を読み込み中...

リアルタイム位置

3D地球を読み込み中...

次回通過

高度履歴

Altitude vs Time

uPlot chart will show altitude changes over time

軌道要素

1 63877U 25094P 26063.16670139 -.00043572 00000-0 -36646-2 0 9991
2 63877 69.9994 248.4250 0002641 273.5706 123.5285 14.98352221 5544
Epoch: Mar 4, 2026 • Age: 11 hours

現在のステータス

高度 574.2 km
速度 7.57 km/s
衛星直下点 10.40°N, 96.71°E
打ち上げ日 May 10, 2025
運用期間 0.8 years
タイプ internet

技術仕様

分類 Payload
質量 575.00 kg
乾燥質量 530.00 kg
総質量 575.00 kg
長さ 0.30 m
直径 4.10 m
スパン 29.00 m
形状 Box + pan
製造者 SPXS
バスタイプ Starlink V2MO
フェーズステータス In Orbit
所有者/国 SPXS/US

大規模コンステレーション

Loading constellations...